Weather History for Marfa, TX

Change the Weather History Date:

Tuesday, April 1, 2014

  Actual Average Record
Temperature  
Mean Temperature 60 °F -  
Max Temperature 82 °F 70 °F 84 °F (2012)
Min Temperature 39 °F 38 °F 23 °F (1998)
Degree Days  
Heating Degree Days 4    
Growing Degree Days 10 (Base 50)    
Moisture  
Dew Point 13 °F    
Average Humidity 16    
Maximum Humidity 27    
Minimum Humidity 10    
Precipitation  
Precipitation 0.00 in - - ()
Sea Level Pressure  
Sea Level Pressure 30.02 in    
Wind  
Wind Speed 9 mph (WNW)    
Max Wind Speed 20 mph    
Max Gust Speed 29 mph    
Visibility 10 miles    
Events      
Averages and records for this station are not official NWS values.
T = Trace of Precipitation, MM = Missing Value Source: NWS Daily Summary

Daily Weather History Graph

Daily Weather History Graph

Search for Another Location

Airport:

Trip Planner

Search our weather history database for the weather conditions in past years. The results will help you decide how hot, cold, wet, or windy it might be!

Date:

Astronomy

Apr. 01, 2014 Rise Set
Actual Time 7:45 AM CDT 8:14 PM CDT
Civil Twilight 7:20 AM CDT 8:39 PM CDT
Nautical Twilight 6:52 AM CDT 9:07 PM CDT
Astronomical Twilight 6:23 AM CDT 9:36 PM CDT
Moon 8:57 AM CDT (4/1) 10:29 PM CDT (4/1)
Length of Visible Light 13h 18m
Length of Day
12h 29m
Waxing Crescent, 5% of the Moon is Illuminated
Apr 1
Waxing Crescent
Apr 7
First Quarter
Apr 15
Full
Apr 22
Last Quarter
Apr 29
New

Hourly Weather History & Observations

Time (CDT) Temp. Windchill Dew Point Humidity Pressure Visibility Wind Dir Wind Speed Gust Speed Precip Events Conditions
12:15 AM 46.4 °F 42.9 °F 5.0 °F 18% 30.06 in 10.0 mi NNW 6.9 mph - N/A   Clear
12:35 AM 46.4 °F 41.9 °F 6.8 °F 20% 30.06 in 10.0 mi NW 9.2 mph - N/A   Clear
12:55 AM 46.4 °F 41.5 °F 6.8 °F 20% 30.06 in 10.0 mi NNW 10.4 mph - N/A   Clear
1:15 AM 44.6 °F 39.7 °F 6.8 °F 21% 30.05 in 10.0 mi NNW 9.2 mph - N/A   Clear
1:35 AM 44.6 °F 40.7 °F 6.8 °F 21% 30.05 in 10.0 mi NNW 6.9 mph - N/A   Clear
1:55 AM 44.6 °F 40.2 °F 6.8 °F 21% 30.06 in 10.0 mi NNW 8.1 mph - N/A   Clear
2:15 AM 44.6 °F 39.2 °F 6.8 °F 21% 30.05 in 10.0 mi NNW 10.4 mph - N/A   Clear
2:35 AM 46.4 °F 41.9 °F 6.8 °F 20% 30.05 in 10.0 mi NNW 9.2 mph - N/A   Clear
2:55 AM 44.6 °F 40.7 °F 6.8 °F 21% 30.04 in 10.0 mi NNW 6.9 mph - N/A   Clear
3:15 AM 44.6 °F 40.7 °F 6.8 °F 21% 30.04 in 10.0 mi North 6.9 mph - N/A   Clear
3:35 AM 42.8 °F 38.0 °F 6.8 °F 23% 30.04 in 10.0 mi North 8.1 mph - N/A   Clear
3:55 AM 46.4 °F 41.1 °F 8.6 °F 22% 30.04 in 10.0 mi NNW 11.5 mph - N/A   Clear
4:15 AM 44.6 °F 38.8 °F 8.6 °F 23% 30.04 in 10.0 mi NNW 11.5 mph - N/A   Clear
4:35 AM 46.4 °F 41.5 °F 8.6 °F 22% 30.04 in 10.0 mi NNW 10.4 mph - N/A   Clear
4:55 AM 44.6 °F 39.2 °F 6.8 °F 21% 30.04 in 10.0 mi NNW 10.4 mph - N/A   Clear
5:15 AM 44.6 °F 43.1 °F 8.6 °F 23% 30.04 in 10.0 mi North 3.5 mph - N/A   Clear
5:35 AM 42.8 °F 39.3 °F 6.8 °F 23% 30.04 in 10.0 mi NNE 5.8 mph - N/A   Clear
5:55 AM 42.8 °F - 6.8 °F 23% 30.05 in 10.0 mi Calm Calm - N/A   Clear
6:15 AM 41.0 °F 39.0 °F 6.8 °F 24% 30.05 in 10.0 mi North 3.5 mph - N/A   Clear
6:35 AM 41.0 °F 36.4 °F 6.8 °F 24% 30.05 in 10.0 mi NW 6.9 mph - N/A   Clear
6:55 AM 39.2 °F 33.6 °F 6.8 °F 26% 30.06 in 10.0 mi NNW 8.1 mph - N/A   Clear
7:15 AM 42.8 °F 37.0 °F 8.6 °F 25% 30.05 in 10.0 mi NNW 10.4 mph - N/A   Clear
7:35 AM 42.8 °F 39.3 °F 8.6 °F 25% 30.06 in 10.0 mi NNW 5.8 mph - N/A   Clear
7:55 AM 41.0 °F 36.4 °F 8.6 °F 26% 30.06 in 10.0 mi NNW 6.9 mph - N/A   Clear
8:15 AM 42.8 °F 39.3 °F 10.4 °F 27% 30.07 in 10.0 mi North 5.8 mph - N/A   Clear
8:35 AM 46.4 °F 44.3 °F 10.4 °F 23% 30.07 in 10.0 mi NNW 4.6 mph - N/A   Clear
8:55 AM 51.8 °F - 14.0 °F 22% 30.08 in 10.0 mi NNW 3.5 mph - N/A   Clear
9:15 AM 57.2 °F - 15.8 °F 20% 30.08 in 10.0 mi North 3.5 mph - N/A   Clear
9:35 AM 64.4 °F - 15.8 °F 15% 30.08 in 10.0 mi Calm Calm - N/A   Clear
9:55 AM 66.2 °F - 17.6 °F 15% 30.08 in 10.0 mi Calm Calm - N/A   Clear
10:15 AM 69.8 °F - 17.6 °F 14% 30.09 in 10.0 mi WNW 4.6 mph - N/A   Clear
10:35 AM 71.6 °F - 17.6 °F 13% 30.09 in 10.0 mi West 6.9 mph - N/A   Clear
10:55 AM 73.4 °F - 19.4 °F 13% 30.09 in 10.0 mi West 8.1 mph - N/A   Clear
11:15 AM 73.4 °F - 19.4 °F 13% 30.09 in 10.0 mi WSW 6.9 mph - N/A   Clear
11:35 AM 73.4 °F - 19.4 °F 13% 30.09 in 10.0 mi WSW 10.4 mph - N/A   Clear
11:55 AM 75.2 °F - 19.4 °F 12% 30.09 in 10.0 mi WSW 9.2 mph 16.1 mph N/A   Clear
12:15 PM 75.2 °F - 19.4 °F 12% 30.08 in 10.0 mi SW 5.8 mph - N/A   Clear
12:35 PM 77.0 °F - 19.4 °F 12% 30.07 in 10.0 mi WSW 12.7 mph 19.6 mph N/A   Clear
12:55 PM 78.8 °F - 19.4 °F 11% 30.06 in 10.0 mi SW 12.7 mph 23.0 mph N/A   Clear
1:15 PM 78.8 °F - 19.4 °F 11% 30.05 in 10.0 mi West 13.8 mph 19.6 mph N/A   Clear
1:35 PM 78.8 °F - 19.4 °F 11% 30.04 in 10.0 mi West 9.2 mph 24.2 mph N/A   Clear
1:55 PM 80.6 °F - 19.4 °F 10% 30.03 in 10.0 mi SSW 11.5 mph 19.6 mph N/A   Clear
2:15 PM 80.6 °F - 19.4 °F 10% 30.02 in 10.0 mi South 17.3 mph 21.9 mph N/A   Clear
2:35 PM 80.6 °F - 21.2 °F 11% 30.00 in 10.0 mi SSW 9.2 mph 16.1 mph N/A   Clear
2:55 PM 80.6 °F - 21.2 °F 11% 29.99 in 10.0 mi WSW 12.7 mph 21.9 mph N/A   Clear
3:15 PM 82.4 °F - 21.2 °F 10% 29.98 in 10.0 mi South 16.1 mph 19.6 mph N/A   Clear
3:35 PM 82.4 °F - 21.2 °F 10% 29.97 in 10.0 mi SSW 16.1 mph 25.3 mph N/A   Clear
3:55 PM 82.4 °F - 21.2 °F 10% 29.96 in 10.0 mi SW 11.5 mph 23.0 mph N/A   Clear
4:15 PM 82.4 °F - 21.2 °F 10% 29.96 in 10.0 mi South 12.7 mph 18.4 mph N/A   Clear
4:35 PM 82.4 °F - 21.2 °F 10% 29.94 in 10.0 mi SSW 18.4 mph 25.3 mph N/A   Clear
4:55 PM 82.4 °F - 21.2 °F 10% 29.94 in 10.0 mi SSW 19.6 mph 28.8 mph N/A   Clear
5:15 PM 82.4 °F - 21.2 °F 10% 29.94 in 10.0 mi SSW 16.1 mph 23.0 mph N/A   Clear
5:35 PM 82.4 °F - 21.2 °F 10% 29.94 in 10.0 mi SSW 18.4 mph 25.3 mph N/A   Clear
5:55 PM 80.6 °F - 19.4 °F 10% 29.94 in 10.0 mi South 19.6 mph 24.2 mph N/A   Clear
6:15 PM 80.6 °F - 19.4 °F 10% 29.93 in 10.0 mi South 19.6 mph 27.6 mph N/A   Clear
6:35 PM 80.6 °F - 19.4 °F 10% 29.94 in 10.0 mi SSW 15.0 mph - N/A   Clear
6:55 PM 78.8 °F - 19.4 °F 11% 29.94 in 10.0 mi South 15.0 mph 18.4 mph N/A   Clear
7:15 PM 78.8 °F - 19.4 °F 11% 29.94 in 10.0 mi SSW 12.7 mph 20.7 mph N/A   Clear
7:35 PM 77.0 °F - 17.6 °F 11% 29.94 in 10.0 mi SSW 13.8 mph 17.3 mph N/A   Clear
7:55 PM 75.2 °F - 17.6 °F 11% 29.95 in 10.0 mi SSW 9.2 mph 17.3 mph N/A   Clear
8:15 PM 71.6 °F - 14.0 °F 11% 29.95 in 10.0 mi SSW 6.9 mph - N/A   Clear
8:35 PM 69.8 °F - 10.4 °F 10% 29.95 in 10.0 mi South 6.9 mph - N/A   Clear
8:55 PM 66.2 °F - 10.4 °F 11% 29.95 in 10.0 mi South 5.8 mph - N/A   Clear
9:15 PM 66.2 °F - 10.4 °F 11% 29.95 in 10.0 mi South 4.6 mph - N/A   Clear
9:35 PM 62.6 °F - 8.6 °F 12% 29.95 in 10.0 mi Calm Calm - N/A   Clear
9:55 PM 53.6 °F - 5.0 °F 14% 29.96 in 10.0 mi Calm Calm - N/A   Clear
10:15 PM 53.6 °F - 8.6 °F 16% 29.95 in 10.0 mi ENE 4.6 mph - N/A   Clear
10:35 PM 53.6 °F - 6.8 °F 15% 29.95 in 10.0 mi NE 4.6 mph - N/A   Clear
10:55 PM 50.0 °F - 5.0 °F 16% 29.95 in 10.0 mi NNE 4.6 mph - N/A   Clear
11:15 PM 48.2 °F - 6.8 °F 19% 29.95 in 10.0 mi NE 6.9 mph - N/A   Clear
11:35 PM 53.6 °F - 10.4 °F 18% 29.95 in 10.0 mi NE 4.6 mph - N/A   Clear
11:55 PM 48.2 °F - 6.8 °F 19% 29.95 in 10.0 mi North 6.9 mph - N/A   Clear